Location: Newark
(54.3833°N, 10.0000°E)
Time: 04:23:29
(UTC+00:00)

Envisat - Visible Passes

Search period start: 07 December 2019 00:00
Search period end: 17 December 2019 00:00
Orbit: 764 x 766 km, 98.1° (Epoch: 06 December)

Date Brightness Start Highest point End Pass type
(mag) Time Alt. Az. Time Alt. Az. Time Alt. Az.
07 Dec 5.9 04:51:54 10° NE 04:55:07 17° E 04:58:18 10° SE visible
07 Dec 3.1 06:29:46 10° NNE 06:34:54 88° ESE 06:40:00 10° SSW visible
07 Dec 3.3 16:12:36 10° SE 16:17:21 42° ENE 16:22:08 10° N visible
07 Dec 4.4 17:51:45 10° SSW 17:56:28 38° W 18:01:12 10° NNW visible
08 Dec 4.2 05:53:05 10° NNE 05:58:01 47° E 06:02:54 10° S visible
08 Dec 4.0 15:36:50 10° ESE 15:40:53 25° ENE 15:44:57 10° N visible
08 Dec 3.2 17:14:26 10° S 17:19:30 71° WSW 17:24:37 10° NNW visible
08 Dec 6.0 18:57:09 10° WSW 18:59:30 13° W 19:01:51 10° NW visible
09 Dec 5.3 05:16:43 10° NE 05:20:56 25° E 05:25:08 10° SSE visible
09 Dec 3.0 16:37:43 10° SSE 16:42:44 63° ENE 16:47:47 10° N visible
09 Dec 5.2 18:18:04 10° SW 18:22:12 25° W 18:26:21 10° NW visible
10 Dec 6.1 04:41:08 10° NE 04:43:39 14° E 04:46:10 10° ESE visible
10 Dec 3.3 06:18:29 10° NNE 06:23:37 74° ESE 06:28:41 10° S visible
10 Dec 3.5 16:01:33 10° SE 16:06:09 35° ENE 16:10:45 10° N visible
10 Dec 4.1 17:40:14 10° S 17:45:06 45° W 17:50:01 10° NNW visible
11 Dec 4.5 05:41:53 10° NNE 05:46:40 39° E 05:51:25 10° SSE visible
11 Dec 3.0 17:03:07 10° SSE 17:08:12 85° WSW 17:13:20 10° NNW visible
11 Dec 5.8 18:44:58 10° WSW 18:48:02 16° W 18:51:07 10° NW visible
12 Dec 5.6 05:05:40 10° NE 05:09:32 21° E 05:13:22 10° SE visible
12 Dec 3.0 06:44:01 10° NNE 06:49:07 73° WNW 06:54:10 10° SSW visible
12 Dec 3.1 16:26:34 10° SE 16:31:30 53° ENE 16:36:27 10° N visible
12 Dec 4.9 18:06:23 10° SSW 18:10:48 29° W 18:15:15 10° NNW visible
13 Dec 6.2 04:30:45 10° ENE 04:32:11 11° E 04:33:36 10° E visible
13 Dec 3.6 06:07:14 10° NNE 06:12:18 61° ESE 06:17:20 10° S visible
13 Dec 3.7 15:50:34 10° ESE 15:54:57 30° ENE 15:59:22 10° N visible
13 Dec 3.7 17:28:47 10° S 17:33:46 55° W 17:38:47 10° NNW visible
14 Dec 4.9 05:30:43 10° NNE 05:35:18 33° E 05:39:51 10° SSE visible
14 Dec 2.9 16:51:50 10° SSE 16:56:55 81° ENE 17:02:03 10° NNW visible
14 Dec 5.6 18:33:00 10° SW 18:36:36 19° W 18:40:13 10° NW visible
15 Dec 5.9 04:54:40 10° NE 04:58:06 18° E 05:01:30 10° SE visible
15 Dec 3.0 06:32:42 10° NNE 06:37:50 87° WNW 06:42:55 10° SSW visible
15 Dec 3.3 16:15:27 10° SE 16:20:15 44° ENE 16:25:06 10° N visible
15 Dec 4.6 17:54:47 10° SSW 17:59:26 35° W 18:04:06 10° NNW visible
16 Dec 4.0 05:55:59 10° NNE 06:00:58 51° E 06:05:55 10° S visible
16 Dec 3.9 15:39:38 10° ESE 15:43:47 26° ENE 15:47:57 10° N visible
16 Dec 3.4 17:17:24 10° S 17:22:26 66° WSW 17:27:32 10° NNW visible
16 Dec 6.1 19:00:32 10° WSW 19:02:30 12° W 19:04:28 10° WNW visible
